Stations météo

Publicité
Cap Cepet, France (7661): Température de l'air & dewpoint: 10.08.2017 17:00:00 - 16.08.2017 17:00:00 (CEST)Cap Cepet, France (7661): Vitesse du vent & gusts: 10.08.2017 17:00:00 - 16.08.2017 17:00:00 (CEST)Cap Cepet, France (7661): Direction du vent: 10.08.2017 17:00:00 - 16.08.2017 17:00:00 (CEST)Cap Cepet, France (7661): reduced air pressure: 10.08.2017 17:00:00 - 16.08.2017 17:00:00 (CEST)Cap Cepet, France (7661): visibility: 10.08.2017 17:00:00 - 16.08.2017 17:00:00 (CEST)Cap Cepet, France (7661): Quantités de précipitations: 10.08.2017 17:00:00 - 16.08.2017 17:00:00 (CEST)
Date & Time tt [°C] td [°C] ff [km/h] ff [knt] fx [km/h] fx [knt] dd ppp [hPa] vv [km] rr [mm]
16.08.2017 17:00:00 26,6 12,3 21 11 46 25 W 1017,2 - 0,0
16.08.2017 16:00:00 27,2 12,8 20 11 39 21 W 1017,4 - 0,0
16.08.2017 15:00:00 29,5 10,6 24 13 35 19 W 1017,5 - 0,0
16.08.2017 14:00:00 30,7 13,0 14 8 26 14 SW 1017,5 40 0,0
16.08.2017 13:00:00 30,5 12,4 16 9 23 13 SW 1017,8 - 0,0
16.08.2017 12:00:00 29,8 13,5 11 6 24 13 WSW 1018,1 - 0,0
16.08.2017 11:00:00 28,4 10,1 14 8 23 12 W 1018,5 30 0,0
16.08.2017 10:00:00 25,9 13,1 11 6 19 10 WSW 1018,7 - 0,0
16.08.2017 09:00:00 24,1 9,3 13 7 18 10 W 1018,7 - 0,0
16.08.2017 08:00:00 21,3 8,9 13 7 16 9 WNW 1018,7 30 0,0
16.08.2017 07:00:00 22,1 10,3 8 5 25 13 W 1018,5 - 0,0
16.08.2017 06:00:00 21,4 12,0 20 11 24 13 W 1018,2 - 0,0
16.08.2017 05:00:00 22,0 8,8 18 10 24 13 W 1018,4 - 0,0
16.08.2017 04:00:00 22,3 8,0 12 7 14 8 WSW 1018,5 - 0,0
16.08.2017 03:00:00 23,0 7,1 5 3 8 4 SSW 1018,7 - 0,0
16.08.2017 02:00:00 23,8 6,6 7 4 20 11 E 1019,1 - 0,0
16.08.2017 01:00:00 21,4 10,2 14 7 17 9 NE 1019,6 - 0,0
16.08.2017 00:00:00 22,7 8,8 17 9 27 15 W 1019,7 - 0,0
15.08.2017 23:00:00 22,3 10,4 16 8 23 12 W 1019,9 - 0,0
15.08.2017 22:00:00 21,7 12,0 12 7 16 9 WSW 1020,0 - 0,0
15.08.2017 21:00:00 23,2 8,1 5 3 26 14 NW 1018,6 - 0,0
15.08.2017 20:00:00 23,6 16,1 14 8 22 12 W 1019,7 - 0,0
15.08.2017 19:00:00 25,1 10,9 15 8 22 12 SSW 1019,6 - 0,0
15.08.2017 18:00:00 25,0 17,7 16 8 24 13 SSW 1019,8 - 0,0
15.08.2017 17:00:00 25,7 15,7 16 9 23 12 S 1019,7 30 0,0
15.08.2017 16:00:00 27,5 10,7 9 5 18 10 SSE 1019,5 - 0,0
15.08.2017 15:00:00 27,9 12,7 11 6 21 11 SSE 1020,0 - 0,0
15.08.2017 14:00:00 27,3 12,9 14 8 26 14 SSE 1019,8 - 0,0
15.08.2017 13:00:00 27,4 11,0 12 7 21 11 S 1020,1 - 0,0
15.08.2017 12:00:00 26,7 12,0 8 4 14 8 S 1020,5 - 0,0
15.08.2017 11:00:00 27,3 10,1 3 2 11 6 ESE 1020,9 - 0,0
15.08.2017 10:00:00 24,6 11,2 5 3 10 5 ENE 1020,9 - 0,0
15.08.2017 09:00:00 20,6 12,8 8 4 12 7 NW 1021,1 - 0,0
15.08.2017 08:00:00 20,2 12,4 2 1 16 8 NE 1021,1 - 0,0
15.08.2017 07:00:00 20,6 9,8 13 7 15 8 ENE 1020,4 - 0,0
15.08.2017 06:00:00 19,2 11,0 10 6 18 10 NE 1019,9 - 0,0
15.08.2017 05:00:00 18,3 13,8 10 6 20 11 NNE 1020,0 15 0,0
15.08.2017 04:00:00 19,0 11,8 19 10 24 13 ENE 1020,2 - 0,0
15.08.2017 03:00:00 19,6 14,2 6 3 13 7 NNE 1019,8 - 0,0
15.08.2017 02:00:00 19,1 15,4 12 6 14 8 ENE 1020,1 - 0,0
15.08.2017 01:00:00 19,3 18,3 5 3 9 5 NNE 1020,3 - 0,0
15.08.2017 00:00:00 19,5 17,8 3 1 4 2 N 1020,6 - 0,0
14.08.2017 23:00:00 18,9 17,2 0 0 8 4 N 1020,6 - 0,0
14.08.2017 22:00:00 19,6 18,4 5 3 6 4 SSE 1020,6 - 0,0
14.08.2017 21:00:00 19,8 18,3 4 2 6 3 S 1020,2 - 0,0
14.08.2017 20:00:00 21,1 18,3 5 3 18 10 S 1019,8 - 0,0
14.08.2017 19:00:00 22,1 18,5 11 6 22 12 SSE 1019,7 - 0,0
14.08.2017 18:00:00 23,0 18,7 12 7 26 14 SE 1019,5 - 0,0
14.08.2017 17:00:00 23,6 18,7 18 10 29 15 SE 1019,4 20 0,0
14.08.2017 16:00:00 24,9 18,8 17 9 31 17 ESE 1019,6 - 0,0
14.08.2017 15:00:00 24,1 18,7 23 12 36 20 SE 1020,0 - 0,0
14.08.2017 14:00:00 25,1 19,0 21 11 39 21 SE 1019,8 20 0,0
14.08.2017 13:00:00 24,8 19,0 18 10 44 24 ESE 1019,6 - 0,0
14.08.2017 12:00:00 24,8 19,2 24 13 40 22 E 1019,3 - 0,0
14.08.2017 11:00:00 24,2 18,6 21 12 35 19 E 1019,3 - 0,0
14.08.2017 10:00:00 24,0 17,5 14 7 24 13 ENE 1019,2 - 0,0
14.08.2017 09:00:00 21,3 17,1 13 7 21 11 NE 1019,2 - 0,0
14.08.2017 08:00:00 17,9 16,8 13 7 24 13 NE 1019,2 10 0,0
14.08.2017 07:00:00 16,6 15,5 16 8 23 13 NE 1018,7 - 0,0
14.08.2017 06:00:00 17,1 15,8 19 10 30 16 ENE 1018,3 - 0,0
14.08.2017 05:00:00 17,5 16,0 22 12 26 14 ENE 1018,1 15 0,0
14.08.2017 04:00:00 18,2 15,3 18 10 22 12 ENE 1018,2 - 0,0
14.08.2017 03:00:00 19,2 17,5 3 2 5 3 NNE 1018,4 - 0,0
14.08.2017 02:00:00 18,8 17,3 3 1 5 3 NNW 1018,6 - 0,0
14.08.2017 01:00:00 19,3 17,4 2 1 6 3 N 1018,7 - 0,0
14.08.2017 00:00:00 19,6 17,7 5 3 10 5 NE 1018,6 - 0,0
13.08.2017 23:00:00 19,7 17,8 9 5 19 10 ENE 1018,3 - 0,0
13.08.2017 22:00:00 19,8 17,4 14 8 20 11 ESE 1018,2 - 0,0
13.08.2017 21:00:00 20,6 16,8 14 7 19 10 ESE 1017,8 - 0,0
13.08.2017 20:00:00 22,5 16,3 4 2 7 4 ESE 1017,3 - 0,0
13.08.2017 19:00:00 22,6 17,1 3 2 18 10 S 1017,2 - 0,0
13.08.2017 18:00:00 22,7 16,9 9 5 21 11 SSW 1017,4 - 0,0
13.08.2017 17:00:00 24,8 17,3 13 7 24 13 S 1017,3 - 0,0
13.08.2017 16:00:00 24,8 16,8 9 5 18 10 SSW 1017,3 - 0,0
13.08.2017 15:00:00 26,5 15,8 9 5 18 10 SSE 1017,4 - 0,0
13.08.2017 14:00:00 25,6 14,7 11 6 19 10 S 1017,6 30 0,0
13.08.2017 13:00:00 25,8 13,6 6 3 16 9 S 1017,6 - 0,0
13.08.2017 12:00:00 25,0 13,9 7 4 16 9 SSE 1017,8 - 0,0
13.08.2017 11:00:00 24,2 11,2 7 4 12 7 S 1017,6 35 0,0
13.08.2017 10:00:00 23,4 7,1 5 3 15 8 ENE 1017,2 - 0,0
13.08.2017 09:00:00 22,3 5,7 11 6 19 10 ENE 1016,9 - 0,0
13.08.2017 08:00:00 19,5 8,2 9 5 11 6 ENE 1016,3 35 0,0
13.08.2017 07:00:00 20,8 6,7 4 2 6 4 SE 1016,0 - 0,0
13.08.2017 06:00:00 20,1 8,4 6 3 12 7 NE 1015,6 - 0,0
13.08.2017 05:00:00 19,2 10,2 4 2 9 5 NNW 1016,0 - 0,0
13.08.2017 04:00:00 19,8 9,4 5 3 7 4 NNW 1016,3 - 0,0
13.08.2017 03:00:00 19,3 9,2 4 2 23 12 NE 1016,3 - 0,0
13.08.2017 02:00:00 18,7 11,0 14 8 30 16 NE 1016,6 - 0,0
13.08.2017 01:00:00 19,1 11,9 11 6 17 9 NE 1016,8 - 0,0
13.08.2017 00:00:00 20,8 10,6 8 4 21 11 NE 1016,9 - 0,0
12.08.2017 23:00:00 20,6 10,1 16 9 25 14 W 1016,6 - 0,0
12.08.2017 22:00:00 20,2 11,9 16 9 28 15 W 1016,6 - 0,0
12.08.2017 21:00:00 21,9 10,4 22 12 39 21 W 1016,2 - 0,0
12.08.2017 20:00:00 24,4 8,8 29 16 50 27 W 1015,8 - 0,0
12.08.2017 19:00:00 26,2 8,7 33 18 59 32 W 1015,4 - 0,0
12.08.2017 18:00:00 28,0 9,3 32 17 56 30 W 1015,6 - 0,0
12.08.2017 17:00:00 28,3 8,6 30 16 48 26 W 1015,7 40 0,0
12.08.2017 16:00:00 27,5 8,4 34 19 57 31 W 1015,6 - 0,0
12.08.2017 15:00:00 28,3 8,6 27 14 48 26 W 1015,7 - 0,0
12.08.2017 14:00:00 28,2 7,4 22 12 53 28 WSW 1015,9 40 0,0
12.08.2017 13:00:00 25,9 7,5 30 16 50 27 W 1016,1 - 0,0
12.08.2017 12:00:00 26,0 7,6 18 10 39 21 W 1016,1 - 0,0
12.08.2017 11:00:00 21,8 9,0 32 18 50 27 W 1016,3 - 0,0
12.08.2017 10:00:00 20,8 8,4 26 14 59 32 W 1016,2 - 0,0
12.08.2017 09:00:00 18,5 8,7 29 15 51 28 W 1016,0 - 0,0
12.08.2017 08:00:00 17,3 8,2 34 18 53 29 W 1016,0 30 0,0
12.08.2017 07:00:00 16,9 8,1 33 18 51 27 W 1015,6 - 0,0
12.08.2017 06:00:00 16,8 8,5 18 10 46 25 W 1015,5 - 0,0
12.08.2017 05:00:00 17,2 7,8 23 12 45 25 WNW 1015,5 15 0,0
12.08.2017 04:00:00 17,4 7,4 21 11 72 39 W 1015,8 - 0,0
12.08.2017 03:00:00 18,0 7,4 49 27 74 40 WNW 1014,7 - 0,0
12.08.2017 02:00:00 18,5 7,6 53 29 82 45 WNW 1014,8 - 0,0
12.08.2017 01:00:00 19,3 6,4 41 22 67 36 WNW 1015,6 - 0,0
12.08.2017 00:00:00 19,5 6,2 48 26 81 44 WNW 1015,6 - 0,0
11.08.2017 23:00:00 19,8 6,2 54 29 85 46 WNW 1015,5 - 0,0
11.08.2017 22:00:00 20,6 5,8 60 33 84 45 WNW 1014,8 - 0,0
11.08.2017 21:00:00 21,1 5,8 49 26 81 44 WNW 1014,9 - 0,0
11.08.2017 20:00:00 20,6 10,7 48 26 85 46 W 1014,8 - 0,0
11.08.2017 19:00:00 22,0 8,8 51 28 89 48 W 1014,3 - 0,0
11.08.2017 18:00:00 23,8 7,0 53 29 81 44 WNW 1014,1 - 0,0
11.08.2017 17:00:00 22,8 9,6 53 29 86 47 W 1014,4 30 0,0
11.08.2017 16:00:00 24,3 5,6 51 28 89 48 WNW 1014,5 - 0,0
11.08.2017 15:00:00 23,2 9,2 51 28 83 45 W 1014,6 - 0,0
11.08.2017 14:00:00 22,4 7,0 47 26 81 44 W 1014,9 40 0,0
11.08.2017 13:00:00 22,0 5,4 56 31 84 46 WNW 1015,4 - 0,0
11.08.2017 12:00:00 20,7 5,9 68 37 100 54 WNW 1015,1 - 0,0
11.08.2017 11:00:00 19,8 7,2 59 32 87 47 WNW 1015,1 25 0,0
11.08.2017 10:00:00 19,0 6,8 61 33 90 49 W 1015,0 - 0,0
11.08.2017 09:00:00 18,0 8,0 61 33 89 48 WNW 1014,5 - 0,0
11.08.2017 08:00:00 17,3 8,4 51 28 71 39 WNW 1014,7 - 0,0
11.08.2017 07:00:00 17,1 8,8 50 27 75 41 W 1015,1 - 0,0
11.08.2017 06:00:00 17,3 9,0 54 29 83 45 W 1014,1 - 0,0
11.08.2017 05:00:00 17,8 9,2 48 26 68 37 WNW 1014,3 15 0,0
11.08.2017 04:00:00 18,3 9,4 45 24 71 38 WNW 1014,9 - 0,0
11.08.2017 03:00:00 18,4 9,5 36 20 63 34 WNW 1015,2 - 0,0
11.08.2017 02:00:00 18,7 10,0 38 21 72 39 W 1015,6 - 0,0
11.08.2017 01:00:00 19,6 9,8 44 24 65 35 WNW 1015,5 - 0,0
11.08.2017 00:00:00 19,7 10,9 46 25 68 37 W 1015,2 - 0,0
10.08.2017 23:00:00 20,0 11,0 46 25 74 40 W 1014,9 - 0,0
10.08.2017 22:00:00 20,5 11,9 50 27 85 46 W 1014,5 - 0,0
10.08.2017 21:00:00 20,6 12,3 61 33 94 51 W 1013,6 - 0,0
10.08.2017 20:00:00 21,2 12,6 61 33 90 49 W 1013,7 10 0,0
10.08.2017 19:00:00 22,4 12,1 58 31 81 44 W 1013,4 - 0,0
10.08.2017 18:00:00 23,1 11,8 58 31 87 47 W 1013,4 - 0,0
10.08.2017 17:00:00 23,5 11,5 55 30 87 47 W 1013,8 - 0,0

tt = Température de l'air
td = dewpoint
ff = Vitesse du vent
fx = gusts
dd = Direction du vent
ppp = reduced air pressure
vv = visibility
rr = Quantités de précipitations

stations d'obs. à proximité